 day,  time,  air_temp(C),  RH(%),  ground_temp10cm(C),  ground_temp20cm(C),  ground_temp40cm(C),  precipitation(mm/h),  Solar_Radiation(MJ/m2h),  lack, 
 01/09/01, 01:00,  12.3,  99,  18.3,  19.4,  19.7,   0.0,  0.00, 
 01/09/01, 02:00,  12.0,  99,  18.2,  19.3,  19.7,   0.0,  0.00, 
 01/09/01, 03:00,  11.9,  99,  18.1,  19.3,  19.7,   0.0,  0.00, 
 01/09/01, 04:00,  11.8,  99,  17.9,  19.2,  19.7,   0.0,  0.00, 
 01/09/01, 05:00,  11.4,  99,  17.8,  19.1,  19.7,   0.0,  0.00, 
 01/09/01, 06:00,  11.3,  99,  17.7,  18.9,  19.7,   0.0,  0.00, 
 01/09/01, 07:00,  11.6,  99,  17.6,  19.0,  19.7,   0.0,  0.20, 
 01/09/01, 08:00,  12.1,  99,  17.5,  18.9,  19.7,   0.0,  0.55, 
 01/09/01, 09:00,  13.2,  99,  17.6,  18.8,  19.7,   0.0,  1.01, 
 01/09/01, 10:00,  14.3,  93,  17.9,  18.7,  19.6,   0.0,  1.90, 
 01/09/01, 11:00,  17.2,  83,  18.4,  18.7,  19.7,   0.0,  2.19, 
 01/09/01, 12:00,  18.0,  84,  18.9,  18.7,  19.7,   0.0,  2.71, 
 01/09/01, 13:00,  19.0,  84,  19.7,  18.8,  19.7,   0.0,  1.75, 
 01/09/01, 14:00,  17.7,  87,  20.0,  18.9,  19.7,   0.0,  1.28, 
 01/09/01, 15:00,  17.0,  91,  20.2,  19.0,  19.7,   0.0,  0.90, 
 01/09/01, 16:00,  17.0,  90,  20.3,  19.1,  19.6,   0.0,  0.80, 
 01/09/01, 17:00,  16.4,  94,  20.3,  19.2,  19.6,   0.0,  0.60, 
 01/09/01, 18:00,  15.6,  97,  20.2,  19.3,  19.6,   0.0,  0.20, 
 01/09/01, 19:00,  14.5,  99,  20.0,  19.4,  19.6,   0.0,  0.00, 
 01/09/01, 20:00,  14.5,  99,  19.7,  19.5,  19.6,   0.0,  0.00, 
 01/09/01, 21:00,  14.5,  99,  19.5,  19.5,  19.6,   0.0,  0.00, 
 01/09/01, 22:00,  14.4,  99,  19.3,  19.5,  19.6,   0.0,  0.00, 
 01/09/01, 23:00,  13.4,  99,  19.1,  19.5,  19.6,   0.0,  0.00, 
 01/09/02, 00:00,  13.7,  99,  18.9,  19.4,  19.6,   0.0,  0.00, 
 01/09/02, 01:00,  11.8,  99,  18.8,  19.4,  19.6,   0.0,  0.00, 
 01/09/02, 02:00,  11.5,  99,  18.5,  19.4,  19.6,   0.0,  0.00, 
 01/09/02, 03:00,  12.1,  99,  18.2,  19.3,  19.5,   0.0,  0.00, 
 01/09/02, 04:00,  12.0,  99,  18.0,  19.2,  19.5,   0.0,  0.00, 
 01/09/02, 05:00,  11.9,  99,  17.7,  19.1,  19.6,   0.0,  0.00, 
 01/09/02, 06:00,  12.0,  99,  17.5,  19.0,  19.5,   0.0,  0.03, 
 01/09/02, 07:00,  13.0,  99,  17.3,  18.8,  19.5,   0.0,  0.34, 
 01/09/02, 08:00,  15.6,  88,  17.3,  18.8,  19.6,   0.0,  1.21, 
 01/09/02, 09:00,  16.6,  87,  17.3,  18.7,  19.6,   0.0,  2.08, 
 01/09/02, 10:00,  18.1,  81,  17.5,  18.7,  19.4,   0.0,  1.87, 
 01/09/02, 11:00,  19.4,  75,  18.0,  18.6,  19.5,   0.0,  2.77, 
 01/09/02, 12:00,  20.0,  76,  18.8,  18.6,  19.5,   0.0,  2.83, 
 01/09/02, 13:00,  20.1,  70,  19.7,  18.6,  19.5,   0.0,  2.50, 
 01/09/02, 14:00,  19.8,  75,  20.2,  18.7,  19.5,   0.0,  1.61, 
 01/09/02, 15:00,  19.1,  79,  20.6,  18.9,  19.5,   0.0,  1.21, 
 01/09/02, 16:00,  18.5,  88,  20.7,  19.0,  19.5,   0.0,  0.80, 
 01/09/02, 17:00,  16.7,  95,  20.7,  19.3,  19.4,   0.0,  0.38, 
 01/09/02, 18:00,  15.8,  99,  20.5,  19.3,  19.4,   0.0,  0.07, 
 01/09/02, 19:00,  15.4,  99,  20.2,  19.5,  19.4,   0.0,  0.00, 
 01/09/02, 20:00,  15.2,  99,  20.0,  19.5,  19.3,   0.0,  0.00, 
 01/09/02, 21:00,  15.3,  99,  19.7,  19.6,  19.4,   0.0,  0.00, 
 01/09/02, 22:00,  15.3,  99,  19.6,  19.6,  19.4,   0.0,  0.00, 
 01/09/02, 23:00,  15.0,  99,  19.3,  19.6,  19.4,   0.0,  0.00, 
 01/09/03, 00:00,  15.1,  99,  19.1,  19.5,  19.4,   0.0,  0.00, 
 01/09/03, 01:00,  14.8,  99,  19.0,  19.4,  19.4,   0.0,  0.00, 
 01/09/03, 02:00,  14.7,  99,  18.8,  19.4,  19.4,   0.0,  0.00, 
 01/09/03, 03:00,  14.9,  99,  18.7,  19.3,  19.3,   0.0,  0.00, 
 01/09/03, 04:00,  14.6,  99,  18.6,  19.3,  19.3,   0.0,  0.00, 
 01/09/03, 05:00,  14.5,  99,  18.5,  19.2,  19.3,   0.0,  0.00, 
 01/09/03, 06:00,  12.6,  99,  18.4,  19.2,  19.5,   1.5,  0.00, 
 01/09/03, 07:00,  13.2,  99,  18.2,  19.1,  19.4,   0.5,  0.00, 
 01/09/03, 08:00,  13.2,  99,  18.1,  19.1,  19.4,   0.5,  0.12, 
 01/09/03, 09:00,  13.7,  99,  18.0,  19.0,  19.3,   0.0,  0.28, 
 01/09/03, 10:00,  14.5,  95,  18.0,  19.0,  19.3,   0.0,  0.63, 
 01/09/03, 11:00,  15.3,  96,  18.1,  18.9,  19.3,   0.0,  1.14, 
 01/09/03, 12:00,  15.3,  98,  18.4,  18.9,  19.3,   0.5,  0.92, 
 01/09/03, 13:00,  15.4,  99,  18.7,  18.8,  19.4,   0.0,  1.14, 
 01/09/03, 14:00,  15.0,  99,  18.9,  18.8,  19.3,   0.0,  0.28, 
 01/09/03, 15:00,  15.0,  94,  18.8,  18.8,  19.3,   0.0,  0.29, 
 01/09/03, 16:00,  14.7,  99,  18.9,  18.9,  19.4,   0.0,  0.25, 
 01/09/03, 17:00,  13.8,  99,  18.7,  18.9,  19.3,   1.0,  0.14, 
 01/09/03, 18:00,  13.8,  99,  18.7,  18.9,  19.3,   0.5,  0.07, 
 01/09/03, 19:00,  13.4,  99,  18.5,  18.9,  19.3,   0.0,  0.00, 
 01/09/03, 20:00,  13.2,  99,  18.3,  18.9,  19.3,   0.0,  0.00, 
 01/09/03, 21:00,  13.2,  99,  18.2,  18.9,  19.2,   1.0,  0.00, 
 01/09/03, 22:00,  13.2,  99,  18.0,  18.7,  19.2,   0.0,  0.00, 
 01/09/03, 23:00,  13.2,  99,  17.8,  18.8,  19.2,   6.5,  0.00, 
 01/09/04, 00:00,  13.0,  99,  17.4,  18.7,  19.2,   6.0,  0.00, 
 01/09/04, 01:00,  12.3,  99,  17.2,  18.6,  19.2,   0.0,  0.00, 
 01/09/04, 02:00,  12.8,  98,  17.1,  18.5,  19.2,   0.0,  0.00, 
 01/09/04, 03:00,  13.3,  99,  17.0,  18.4,  19.2,   0.0,  0.00, 
 01/09/04, 04:00,  13.5,  99,  16.9,  18.3,  19.2,   0.0,  0.00, 
 01/09/04, 05:00,  13.3,  99,  16.8,  18.2,  19.1,   0.0,  0.00, 
 01/09/04, 06:00,  13.4,  99,  16.8,  18.2,  19.1,   0.0,  0.01, 
 01/09/04, 07:00,  14.5,  99,  16.8,  18.1,  19.1,   0.5,  0.31, 
 01/09/04, 08:00,  14.9,  98,  16.8,  18.0,  19.1,   0.0,  0.64, 
 01/09/04, 09:00,  15.1,  99,  17.0,  18.0,  19.1,   0.0,  0.71, 
 01/09/04, 10:00,  14.7,  99,  17.2,  17.9,  19.0,   0.0,  1.12, 
 01/09/04, 11:00,  16.5,  89,  17.4,  17.9,  19.0,   0.0,  1.05, 
 01/09/04, 12:00,  17.0,  91,  17.8,  17.9,  19.0,   0.0,  1.57, 
 01/09/04, 13:00,  18.7,  86,  18.2,  18.0,  19.0,   0.0,  1.52, 
 01/09/04, 14:00,  16.0,  99,  18.6,  18.0,  19.0,   2.5,  0.35, 
 01/09/04, 15:00,  16.6,  95,  18.6,  18.1,  18.9,   0.0,  0.37, 
 01/09/04, 16:00,  16.9,  99,  18.7,  18.2,  18.9,   0.0,  0.57, 
 01/09/04, 17:00,  16.2,  99,  18.7,  18.3,  18.9,   0.0,  0.24, 
 01/09/04, 18:00,  15.6,  99,  18.7,  18.3,  18.9,   0.0,  0.07, 
 01/09/04, 19:00,  15.4,  99,  18.6,  18.4,  18.9,   0.5,  0.00, 
 01/09/04, 20:00,  15.3,  99,  18.5,  18.4,  18.9,   0.0,  0.00, 
 01/09/04, 21:00,  15.1,  99,  18.4,  18.4,  18.8,   0.0,  0.00, 
 01/09/04, 22:00,  14.6,  99,  18.3,  18.5,  18.8,   0.5,  0.00, 
 01/09/04, 23:00,  14.5,  99,  18.2,  18.5,  18.8,   0.0,  0.00, 
 01/09/05, 00:00,  14.5,  99,  18.0,  18.4,  18.8,   0.0,  0.00, 
 01/09/05, 01:00,  14.5,  99,  17.9,  18.4,  18.8,   0.0,  0.00, 
 01/09/05, 02:00,  14.4,  99,  17.8,  18.4,  18.8,   0.0,  0.00, 
 01/09/05, 03:00,  14.4,  99,  17.7,  18.4,  18.8,   0.0,  0.00, 
 01/09/05, 04:00,  14.0,  99,  17.6,  18.3,  18.8,   0.0,  0.00, 
 01/09/05, 05:00,  14.2,  99,  17.5,  18.3,  18.8,   0.0,  0.00, 
 01/09/05, 06:00,  14.1,  99,  17.4,  18.2,  18.8,   0.0,  0.00, 
 01/09/05, 07:00,  14.5,  99,  17.3,  18.2,  18.8,   0.0,  0.23, 
 01/09/05, 08:00,  16.1,  98,  17.3,  18.2,  18.8,   0.0,  1.14, 
 01/09/05, 09:00,  15.6,  98,  17.4,  18.1,  18.8,   0.0,  0.95, 
 01/09/05, 10:00,  16.9,  91,  17.6,  18.1,  18.8,   0.0,  1.33, 
 01/09/05, 11:00,  16.3,  95,  18.0,  18.1,  18.8,   0.0,  0.80, 
 01/09/05, 12:00,  16.9,  91,  18.2,  18.1,  18.8,   0.0,  1.09, 
 01/09/05, 13:00,  17.7,  90,  18.5,  18.1,  18.7,   0.0,  1.30, 
 01/09/05, 14:00,  18.3,  86,  18.9,  18.2,  18.7,   0.0,  1.35, 
 01/09/05, 15:00,  20.0,  77,  19.3,  18.2,  18.7,   0.0,  2.24, 
 01/09/05, 16:00,  19.0,  77,  19.5,  18.3,  18.7,   0.0,  2.10, 
 01/09/05, 17:00,  18.7,  83,  19.7,  18.4,  18.7,   0.0,  1.46, 
 01/09/05, 18:00,  16.0,  93,  19.6,  18.5,  18.7,   0.5,  0.60, 
 01/09/05, 19:00,  14.3,  99,  19.6,  18.6,  18.7,   0.0,  0.00, 
 01/09/05, 20:00,  14.4,  96,  19.2,  18.7,  18.7,   0.0,  0.00, 
 01/09/05, 21:00,  14.5,  97,  18.9,  18.7,  18.7,   0.0,  0.00, 
 01/09/05, 22:00,  13.7,  99,  18.6,  18.8,  18.7,   0.0,  0.00, 
 01/09/05, 23:00,  13.4,  97,  18.3,  18.7,  18.7,   0.0,  0.00, 
 01/09/06, 00:00,  13.2,  99,  18.0,  18.7,  18.7,   0.0,  0.00, 
 01/09/06, 01:00,  12.2,  99,  17.8,  18.6,  18.7,   0.0,  0.00, 
 01/09/06, 02:00,  12.4,  99,  17.5,  18.6,  18.7,   0.0,  0.00, 
 01/09/06, 03:00,  12.6,  99,  17.3,  18.5,  18.7,   0.0,  0.00, 
 01/09/06, 04:00,  12.1,  99,  17.2,  18.4,  18.7,   0.0,  0.00, 
 01/09/06, 05:00,  12.3,  99,  17.0,  18.3,  18.7,   0.0,  0.00, 
 01/09/06, 06:00,  11.5,  99,  16.9,  18.2,  18.7,   0.0,  0.01, 
 01/09/06, 07:00,  13.4,  95,  16.7,  18.2,  18.7,   0.0,  0.34, 
 01/09/06, 08:00,  15.1,  92,  16.8,  18.1,  18.7,   0.0,  0.65, 
 01/09/06, 09:00,  15.7,  92,  17.0,  18.0,  18.7,   0.0,  0.88, 
 01/09/06, 10:00,  16.3,  91,  17.3,  17.9,  18.7,   0.0,  1.09, 
 01/09/06, 11:00,  16.4,  94,  17.7,  17.9,  18.7,   0.0,  1.05, 
 01/09/06, 12:00,  17.9,  89,  18.0,  17.9,  18.7,   0.0,  1.22, 
 01/09/06, 13:00,  17.5,  90,  18.4,  18.0,  18.7,   0.0,  1.50, 
 01/09/06, 14:00,  16.5,  94,  18.7,  18.0,  18.7,   0.0,  0.67, 
 01/09/06, 15:00,  17.3,  92,  18.9,  18.1,  18.7,   0.0,  0.67, 
 01/09/06, 16:00,  16.6,  99,  18.9,  18.2,  18.6,   0.0,  0.43, 
 01/09/06, 17:00,  15.8,  99,  19.0,  18.3,  18.6,   0.0,  0.11, 
 01/09/06, 18:00,  15.7,  99,  18.9,  18.3,  18.6,   0.0,  0.01, 
 01/09/06, 19:00,  15.6,  99,  18.7,  18.4,  18.6,   0.0,  0.00, 
 01/09/06, 20:00,  15.4,  99,  18.6,  18.4,  18.6,   0.0,  0.00, 
 01/09/06, 21:00,  15.7,  99,  18.5,  18.4,  18.6,   0.0,  0.00, 
 01/09/06, 22:00,  15.4,  99,  18.4,  18.5,  18.6,   0.0,  0.00, 
 01/09/06, 23:00,  15.3,  99,  18.3,  18.4,  18.6,   0.0,  0.00, 
 01/09/07, 00:00,  15.3,  99,  18.2,  18.4,  18.6,   0.0,  0.00, 
 01/09/07, 01:00,  15.3,  99,  18.1,  18.4,  18.6,   0.0,  0.00, 
 01/09/07, 02:00,  15.3,  99,  18.0,  18.4,  18.6,   0.0,  0.00, 
 01/09/07, 03:00,  15.3,  99,  17.9,  18.4,  18.6,   0.0,  0.00, 
 01/09/07, 04:00,  15.4,  99,  17.9,  18.3,  18.6,   0.0,  0.00, 
 01/09/07, 05:00,  15.4,  99,  17.8,  18.3,  18.6,   0.0,  0.00, 
 01/09/07, 06:00,  15.6,  99,  17.8,  18.3,  18.6,   0.0,  0.00, 
 01/09/07, 07:00,  16.1,  99,  17.7,  18.3,  18.6,   0.0,  0.18, 
 01/09/07, 08:00,  15.9,  99,  17.7,  18.2,  18.6,   0.0,  0.29, 
 01/09/07, 09:00,  16.1,  99,  17.8,  18.2,  18.6,   0.0,  0.23, 
 01/09/07, 10:00,  16.5,  99,  17.9,  18.2,  18.6,   0.0,  0.41, 
 01/09/07, 11:00,  16.4,  99,  18.0,  18.2,  18.6,   0.0,  0.22, 
 01/09/07, 12:00,  17.1,  99,  18.1,  18.2,  18.6,   0.0,  0.63, 
 01/09/07, 13:00,  16.4,  99,  18.3,  18.2,  18.6,   1.5,  0.27, 
 01/09/07, 14:00,  16.5,  99,  18.3,  18.2,  18.6,   4.0,  0.28, 
 01/09/07, 15:00,  16.0,  99,  18.3,  18.2,  18.6,   4.5,  0.13, 
 01/09/07, 16:00,  16.1,  99,  18.2,  18.2,  18.5,   0.5,  0.25, 
 01/09/07, 17:00,  16.1,  99,  18.2,  18.2,  18.5,   0.0,  0.19, 
 01/09/07, 18:00,  15.8,  99,  18.2,  18.3,  18.5,   0.5,  0.06, 
 01/09/07, 19:00,  15.7,  99,  18.1,  18.3,  18.5,   0.5,  0.00, 
 01/09/07, 20:00,  15.7,  99,  18.1,  18.3,  18.5,   0.0,  0.00, 
 01/09/07, 21:00,  15.7,  99,  18.0,  18.3,  18.5,   0.0,  0.00, 
 01/09/07, 22:00,  15.6,  99,  17.9,  18.2,  18.5,   0.0,  0.00, 
 01/09/07, 23:00,  15.3,  99,  17.9,  18.2,  18.5,   0.0,  0.00, 
 01/09/08, 00:00,  14.9,  99,  17.8,  18.2,  18.5,   0.0,  0.00, 
 01/09/08, 01:00,  14.9,  99,  17.6,  18.2,  18.5,   0.0,  0.00, 
 01/09/08, 02:00,  14.9,  99,  17.5,  18.2,  18.5,   0.0,  0.00, 
 01/09/08, 03:00,  14.8,  99,  17.4,  18.1,  18.5,   0.0,  0.00, 
 01/09/08, 04:00,  14.3,  99,  17.3,  18.1,  18.5,   0.0,  0.00, 
 01/09/08, 05:00,  14.9,  99,  17.2,  18.0,  18.5,   0.0,  0.00, 
 01/09/08, 06:00,  14.0,  99,  17.1,  18.0,  18.5,   0.0,  0.00, 
 01/09/08, 07:00,  16.2,  99,  17.0,  17.9,  18.5,   0.0,  0.50, 
 01/09/08, 08:00,  16.4,  99,  17.1,  17.9,  18.5,   0.0,  1.18, 
 01/09/08, 09:00,  17.6,  98,  17.3,  17.8,  18.5,   0.0,  1.48, 
 01/09/08, 10:00,  19.6,  93,  17.7,  17.8,  18.5,   0.0,  1.69, 
 01/09/08, 11:00,  21.3,  89,  18.2,  17.8,  18.4,   0.0,  2.44, 
 01/09/08, 12:00,  21.3,  88,  19.0,  17.9,  18.5,   0.0,  2.69, 
 01/09/08, 13:00,  22.8,  87,  20.0,  18.0,  18.4,   0.5,  2.92, 
 01/09/08, 14:00,  23.0,  86,  20.8,  18.1,  18.5,   0.0,  2.44, 
 01/09/08, 15:00,  23.3,  85,  21.2,  18.3,  18.5,   0.0,  1.90, 
 01/09/08, 16:00,  23.1,  81,  21.2,  18.5,  18.5,   0.0,  1.05, 
 01/09/08, 17:00,  22.2,  87,  21.4,  18.7,  18.5,   0.0,  0.82, 
 01/09/08, 18:00,  20.9,  98,  21.3,  18.9,  18.5,   0.0,  0.34, 
 01/09/08, 19:00,  19.6,  99,  21.1,  19.1,  18.5,   0.0,  0.00, 
 01/09/08, 20:00,  19.1,  99,  20.9,  19.3,  18.5,   0.0,  0.00, 
 01/09/08, 21:00,  18.6,  99,  20.7,  19.4,  18.5,   0.0,  0.00, 
 01/09/08, 22:00,  17.8,  99,  20.4,  19.5,  18.5,   0.0,  0.00, 
 01/09/08, 23:00,  17.4,  99,  20.1,  19.5,  18.5,   0.0,  0.00, 
 01/09/09, 00:00,  17.7,  99,  19.8,  19.4,  18.5,   0.5,  0.00, 
 01/09/09, 01:00,  17.3,  99,  19.7,  19.4,  18.5,   0.0,  0.00, 
 01/09/09, 02:00,  17.2,  99,  19.5,  19.4,  18.5,   0.0,  0.00, 
 01/09/09, 03:00,  17.2,  99,  19.1,  19.3,  18.5,   0.0,  0.00, 
 01/09/09, 04:00,  17.3,  99,  19.0,  19.3,  18.6,   0.0,  0.00, 
 01/09/09, 05:00,  16.6,  99,  18.8,  19.2,  18.6,   0.0,  0.00, 
 01/09/09, 06:00,  16.4,  99,  18.6,  19.2,  18.6,   0.0,  0.00, 
 01/09/09, 07:00,  17.4,  98,  18.4,  19.1,  18.6,   0.0,  0.17, 
 01/09/09, 08:00,  19.9,  95,  18.4,  19.0,  18.6,   0.0,  1.19, 
 01/09/09, 09:00,  20.6,  89,  18.5,  18.9,  18.7,   0.0,  2.02, 
 01/09/09, 10:00,  22.3,  77,  18.7,  18.9,  18.7,   0.0,  2.44, 
 01/09/09, 11:00,  24.9,  76,  19.4,  18.9,  18.7,   0.0,  3.00, 
 01/09/09, 12:00,  25.0,  71,  20.3,  18.9,  18.7,   0.0,  3.13, 
 01/09/09, 13:00,  24.5,  76,  21.2,  18.9,  18.7,   0.0,  2.32, 
 01/09/09, 14:00,  24.0,  65,  21.8,  19.1,  18.7,   0.0,  2.29, 
 01/09/09, 15:00,  23.5,  68,  22.1,  19.4,  18.8,   0.0,  1.33, 
 01/09/09, 16:00,  23.8,  64,  22.1,  19.6,  18.8,   0.0,  1.54, 
 01/09/09, 17:00,  22.2,  65,  22.0,  19.8,  18.8,   0.0,  1.03, 
 01/09/09, 18:00,  21.3,  75,  21.8,  19.9,  18.7,   0.0,  0.45, 
 01/09/09, 19:00,  20.4,  78,  21.7,  20.0,  18.7,   0.0,  0.00, 
 01/09/09, 20:00,  20.9,  75,  21.4,  20.0,  18.7,   0.0,  0.00, 
 01/09/09, 21:00,  20.8,  75,  21.1,  20.1,  18.7,   0.0,  0.00, 
 01/09/09, 22:00,  21.0,  68,  20.8,  20.1,  18.8,   0.0,  0.00, 
 01/09/09, 23:00,  20.9,  67,  20.6,  20.1,  18.8,   0.0,  0.00, 
 01/09/10, 00:00,  18.4,  84,  20.4,  20.1,  18.8,   0.0,  0.00, 
 01/09/10, 01:00,  21.1,  68,  20.2,  20.0,  18.8,   0.0,  0.00, 
 01/09/10, 02:00,  21.1,  68,  20.0,  20.0,  18.9,   0.0,  0.00, 
 01/09/10, 03:00,  21.6,  66,  19.9,  19.9,  18.9,   0.0,  0.00, 
 01/09/10, 04:00,  20.1,  77,  19.7,  19.9,  18.9,   0.0,  0.00, 
 01/09/10, 05:00,  21.9,  63,  19.6,  19.8,  18.9,   0.0,  0.00, 
 01/09/10, 06:00,  17.8,  97,  19.6,  19.7,  18.9,   0.0,  0.00, 
 01/09/10, 07:00,  20.7,  77,  19.5,  19.7,  19.0,   0.0,  0.00, 
 01/09/10, 08:00,  17.4,  99,  19.4,  19.6,  19.0,   0.0,  0.00, 
 01/09/10, 09:00,  18.8,  92,  19.2,  19.6,  19.0,   1.0,  0.11, 
 01/09/10, 10:00,  18.0,  99,  19.3,  19.6,  19.0,   0.0,  0.29, 
 01/09/10, 11:00,  17.5,  99,  19.4,  19.6,  19.0,   0.5,  0.35, 
 01/09/10, 12:00,  18.5,  96,  19.4,  19.5,  19.0,   0.5,  0.35, 
 01/09/10, 13:00,  18.2,  99,  19.5,  19.4,  19.0,   1.5,  0.38, 
 01/09/10, 14:00,  18.5,  99,  19.6,  19.4,  19.0,   0.0,  0.65, 
 01/09/10, 15:00,  18.3,  99,  19.8,  19.5,  19.0,   0.0,  0.47, 
 01/09/10, 16:00,  18.3,  99,  19.9,  19.5,  19.0,   0.5,  0.21, 
 01/09/10, 17:00,  18.3,  99,  19.9,  19.5,  19.0,   0.5,  0.15, 
 01/09/10, 18:00,  18.2,  99,  19.9,  19.5,  19.0,   0.0,  0.01, 
 01/09/10, 19:00,  18.2,  99,  19.7,  19.4,  19.0,   1.5,  0.00, 
 01/09/10, 20:00,  18.1,  99,  19.7,  19.6,  19.0,   0.5,  0.00, 
 01/09/10, 21:00,  18.2,  99,  19.6,  19.5,  19.0,   0.5,  0.00, 
 01/09/10, 22:00,  17.9,  99,  19.6,  19.4,  19.0,   0.5,  0.00, 
 01/09/10, 23:00,  18.7,  96,  19.5,  19.4,  19.0,   0.0,  0.00, 
 01/09/11, 00:00,  18.0,  99,  19.4,  19.5,  19.0,   1.5,  0.00, 
 01/09/11, 01:00,  18.3,  99,  19.3,  19.5,  19.0,   2.5,  0.00, 
 01/09/11, 02:00,  18.0,  99,  19.3,  19.5,  19.0,   2.0,  0.00, 
 01/09/11, 03:00,  17.9,  99,  19.1,  19.3,  19.0,   2.5,  0.00, 
 01/09/11, 04:00,  18.0,  99,  19.0,  19.3,  19.0,   3.0,  0.00, 
 01/09/11, 05:00,  18.1,  99,  19.0,  19.3,  19.0,   3.0,  0.00, 
 01/09/11, 06:00,  18.0,  99,  18.9,  19.2,  19.0,   1.0,  0.00, 
 01/09/11, 07:00,  18.3,  99,  18.9,  19.2,  19.0,   1.5,  0.00, 
 01/09/11, 08:00,  18.4,  99,  18.9,  19.2,  19.0,   0.0,  0.06, 
 01/09/11, 09:00,  18.7,  99,  18.9,  19.1,  19.0,   0.0,  0.31, 
 01/09/11, 10:00,  18.7,  99,  19.0,  19.1,  19.0,   0.5,  0.28, 
 01/09/11, 11:00,  18.7,  99,  19.1,  19.1,  19.0,   0.0,  0.37, 
 01/09/11, 12:00,  18.3,  99,  19.2,  19.1,  19.0,   0.0,  0.37, 
 01/09/11, 13:00,  18.0,  99,  19.4,  19.1,  19.0,   0.5,  0.38, 
 01/09/11, 14:00,  17.8,  99,  19.4,  19.1,  19.0,   0.0,  0.26, 
 01/09/11, 15:00,  17.3,  99,  19.4,  19.1,  19.0,   2.5,  0.12, 
 01/09/11, 16:00,  16.9,  99,  19.4,  19.1,  19.0,   6.0,  0.16, 
 01/09/11, 17:00,  16.2,  99,  19.3,  19.2,  19.0,   2.5,  0.14, 
 01/09/11, 18:00,  15.8,  99,  19.1,  19.2,  19.0,   0.0,  0.06, 
 01/09/11, 19:00,  15.6,  99,  18.9,  19.1,  19.0,   0.0,  0.00, 
 01/09/11, 20:00,  15.3,  99,  18.8,  19.1,  19.0,   0.0,  0.00, 
 01/09/11, 21:00,  15.4,  99,  18.7,  19.1,  19.0,   0.0,  0.00, 
 01/09/11, 22:00,  15.0,  99,  18.6,  19.1,  19.0,   0.0,  0.00, 
 01/09/11, 23:00,  15.0,  99,  18.5,  19.0,  19.0,   0.0,  0.00, 
 01/09/12, 00:00,  14.9,  99,  18.3,  19.0,  19.0,   0.0,  0.00, 
 01/09/12, 01:00,  14.6,  99,  18.2,  18.9,  19.0,   0.0,  0.00, 
 01/09/12, 02:00,  14.5,  99,  18.1,  18.9,  19.0,   0.5,  0.00, 
 01/09/12, 03:00,  14.5,  99,  18.1,  18.8,  19.0,   0.0,  0.00, 
 01/09/12, 04:00,  14.3,  99,  18.0,  18.7,  19.0,   0.0,  0.00, 
 01/09/12, 05:00,  14.1,  99,  17.9,  18.7,  19.0,   0.0,  0.00, 
 01/09/12, 06:00,  14.1,  99,  17.8,  18.7,  19.0,   0.0,  0.00, 
 01/09/12, 07:00,  14.2,  99,  17.7,  18.6,  19.0,   0.0,  0.24, 
 01/09/12, 08:00,  15.0,  99,  17.6,  18.5,  18.9,   0.0,  0.94, 
 01/09/12, 09:00,  15.7,  97,  17.8,  18.5,  18.9,   0.0,  0.95, 
 01/09/12, 10:00,  17.3,  90,  18.0,  18.4,  18.9,   0.0,  1.74, 
 01/09/12, 11:00,  17.7,  90,  18.4,  18.4,  18.9,   0.0,  1.85, 
 01/09/12, 12:00,  18.2,  89,  18.9,  18.4,  18.9,   0.0,  1.45, 
 01/09/12, 13:00,  19.6,  85,  19.5,  18.5,  18.9,   0.0,  2.75, 
 01/09/12, 14:00,  18.8,  82,  20.1,  18.6,  18.9,   0.0,  1.67, 
 01/09/12, 15:00,  19.4,  79,  20.5,  18.7,  18.9,   0.0,  1.72, 
 01/09/12, 16:00,  19.0,  82,  20.6,  18.8,  18.8,   0.0,  2.15, 
 01/09/12, 17:00,  17.1,  91,  20.5,  19.0,  18.8,   0.0,  0.99, 
 01/09/12, 18:00,  16.6,  96,  20.5,  19.1,  18.8,   0.0,  0.20, 
 01/09/12, 19:00,  15.5,  99,  20.2,  19.2,  18.8,   0.0,  0.00, 
 01/09/12, 20:00,  15.3,  99,  20.0,  19.4,  18.8,   0.0,  0.00, 
 01/09/12, 21:00,  14.7,  99,  19.7,  19.3,  18.8,   0.0,  0.00, 
 01/09/12, 22:00,  14.9,  99,  19.5,  19.4,  18.8,   0.0,  0.00, 
 01/09/12, 23:00,  14.5,  99,  19.2,  19.3,  18.8,   0.0,  0.00, 
 01/09/13, 00:00,  14.6,  99,  19.1,  19.3,  18.8,   0.0,  0.00, 
 01/09/13, 01:00,  14.5,  99,  18.9,  19.2,  18.8,   0.0,  0.00, 
 01/09/13, 02:00,  14.5,  99,  18.8,  19.2,  18.8,   0.0,  0.00, 
 01/09/13, 03:00,  14.5,  99,  18.6,  19.1,  18.8,   0.0,  0.00, 
 01/09/13, 04:00,  14.2,  99,  18.5,  19.1,  18.9,   0.0,  0.00, 
 01/09/13, 05:00,  14.0,  99,  18.4,  19.0,  18.9,   0.0,  0.00, 
 01/09/13, 06:00,  13.4,  99,  18.2,  18.9,  18.9,   0.0,  0.00, 
 01/09/13, 07:00,  14.7,  99,  18.1,  18.9,  18.9,   0.0,  0.40, 
 01/09/13, 08:00,  15.3,  99,  18.2,  18.8,  18.9,   0.0,  0.77, 
 01/09/13, 09:00,  16.5,  99,  18.3,  18.8,  18.9,   0.0,  0.96, 
 01/09/13, 10:00,  16.2,  99,  18.5,  18.7,  18.9,   0.0,  0.65, 
 01/09/13, 11:00,  17.9,  93,  18.7,  18.7,  18.9,   0.0,  1.63, 
 01/09/13, 12:00,  19.8,  89,  19.1,  18.7,  18.9,   0.0,  1.64, 
 01/09/13, 13:00,  21.0,  87,  19.7,  18.7,  18.8,   0.0,  1.89, 
 01/09/13, 14:00,  20.8,  89,  20.1,  18.8,  18.8,   0.0,  1.40, 
 01/09/13, 15:00,  20.7,  91,  20.4,  18.9,  18.8,   0.0,  1.41, 
 01/09/13, 16:00,  20.5,  91,  20.5,  19.0,  18.8,   0.0,  0.96, 
 01/09/13, 17:00,  19.5,  91,  20.6,  19.1,  18.8,   0.0,  0.43, 
 01/09/13, 18:00,  17.9,  93,  20.5,  19.2,  18.8,   0.0,  0.08, 
 01/09/13, 19:00,  17.5,  96,  20.3,  19.3,  18.8,   0.0,  0.00, 
 01/09/13, 20:00,  17.3,  99,  20.1,  19.5,  18.8,   0.0,  0.00, 
 01/09/13, 21:00,  16.9,  99,  20.0,  19.5,  18.8,   0.0,  0.00, 
 01/09/13, 22:00,  15.8,  99,  19.7,  19.4,  18.8,   0.0,  0.00, 
 01/09/13, 23:00,  15.6,  99,  19.5,  19.5,  18.8,   0.0,  0.00, 
 01/09/14, 00:00,  15.4,  99,  19.2,  19.4,  18.8,   0.0,  0.00, 
 01/09/14, 01:00,  16.5,  98,  19.1,  19.3,  18.8,   0.0,  0.00, 
 01/09/14, 02:00,  15.6,  99,  18.9,  19.3,  18.9,   0.0,  0.00, 
 01/09/14, 03:00,  16.3,  95,  18.8,  19.2,  18.9,   0.0,  0.00, 
 01/09/14, 04:00,  15.7,  99,  18.7,  19.2,  18.9,   0.0,  0.00, 
 01/09/14, 05:00,  16.5,  99,  18.6,  19.1,  18.9,   1.0,  0.00, 
 01/09/14, 06:00,  16.3,  99,  18.5,  19.1,  18.9,   1.0,  0.00, 
 01/09/14, 07:00,  17.3,  99,  18.4,  19.0,  18.9,   0.0,  0.09, 
 01/09/14, 08:00,  18.2,  99,  18.5,  19.0,  18.9,   0.0,  0.74, 
 01/09/14, 09:00,  19.2,  99,  18.7,  18.9,  18.9,   0.0,  1.09, 
 01/09/14, 10:00,  18.7,  99,  19.0,  18.9,  18.9,   0.0,  0.66, 
 01/09/14, 11:00,  18.4,  99,  19.2,  18.9,  18.9,   3.5,  0.42, 
 01/09/14, 12:00,  18.6,  99,  19.6,  18.9,  18.9,   2.5,  1.00, 
 01/09/14, 13:00,  18.0,  99,  19.9,  19.0,  18.9,   5.5,  0.24, 
 01/09/14, 14:00,  18.9,  99,  19.9,  19.0,  18.9,   0.0,  0.85, 
 01/09/14, 15:00,  18.6,  99,  20.0,  19.1,  18.9,   0.5,  0.34, 
 01/09/14, 16:00,  18.1,  99,  20.0,  19.2,  18.9,   1.5,  0.23, 
 01/09/14, 17:00,  18.0,  99,  20.0,  19.2,  18.9,   2.5,  0.15, 
 01/09/14, 18:00,  17.8,  99,  19.9,  19.3,  18.9,   0.0,  0.01, 
 01/09/14, 19:00,  17.6,  99,  19.8,  19.3,  18.9,   0.0,  0.00, 
 01/09/14, 20:00,  17.4,  99,  19.7,  19.3,  18.9,   0.5,  0.00, 
 01/09/14, 21:00,  17.0,  99,  19.6,  19.3,  18.9,   0.5,  0.00, 
 01/09/14, 22:00,  16.7,  99,  19.5,  19.3,  18.9,   0.0,  0.00, 
 01/09/14, 23:00,  16.5,  99,  19.3,  19.3,  18.9,   0.0,  0.00, 
 01/09/15, 00:00,  16.0,  99,  19.2,  19.3,  18.9,   0.0,  0.00, 
 01/09/15, 01:00,  15.8,  99,  19.0,  19.3,  18.9,   0.0,  0.00, 
 01/09/15, 02:00,  15.8,  99,  18.8,  19.2,  18.9,   0.0,  0.00, 
 01/09/15, 03:00,  15.3,  99,  18.6,  19.2,  18.9,   0.0,  0.00, 
 01/09/15, 04:00,  15.5,  97,  18.5,  19.1,  18.9,   0.0,  0.00, 
 01/09/15, 05:00,  15.2,  96,  18.3,  19.1,  18.9,   0.0,  0.00, 
 01/09/15, 06:00,  14.5,  99,  18.2,  19.0,  18.9,   0.0,  0.02, 
 01/09/15, 07:00,  16.7,  93,  18.0,  18.9,  18.9,   0.0,  0.37, 
 01/09/15, 08:00,  18.0,  94,  18.1,  18.9,  18.9,   0.0,  1.28, 
 01/09/15, 09:00,  20.1,  83,  18.3,  18.8,  18.9,   0.0,  2.20, 
 01/09/15, 10:00,  20.6,  88,  18.6,  18.8,  18.9,   0.0,  2.04, 
 01/09/15, 11:00,  21.3,  82,  19.1,  18.7,  18.9,   0.0,  1.99, 
 01/09/15, 12:00,  21.7,  81,  19.8,  18.8,  18.9,   0.0,  2.37, 
 01/09/15, 13:00,  20.9,  86,  20.5,  18.8,  18.9,   0.0,  2.06, 
 01/09/15, 14:00,  20.6,  87,  21.1,  19.0,  18.9,   0.5,  1.33, 
 01/09/15, 15:00,  18.7,  99,  21.2,  19.1,  18.9,   0.0,  0.57, 
 01/09/15, 16:00,  18.3,  99,  21.2,  19.3,  18.9,   0.0,  0.34, 
 01/09/15, 17:00,  17.4,  99,  21.1,  19.5,  18.9,   3.5,  0.00, 
 01/09/15, 18:00,  16.7,  99,  20.8,  19.7,  18.9,   3.0,  0.00, 
 01/09/15, 19:00,  16.7,  99,  20.6,  19.7,  18.9,   0.5,  0.00, 
 01/09/15, 20:00,  16.2,  99,  20.3,  19.7,  18.9,   2.0,  0.00, 
 01/09/15, 21:00,  16.1,  99,  20.0,  19.7,  18.9,   0.0,  0.00, 
 01/09/15, 22:00,  16.1,  99,  19.9,  19.7,  18.9,   0.0,  0.00, 
 01/09/15, 23:00,  15.9,  99,  19.7,  19.7,  18.9,   0.0,  0.00, 
 01/09/16, 00:00,  15.8,  99,  19.5,  19.6,  18.9,   0.0,  0.00, 
 01/09/16, 01:00,  16.1,  96,  19.3,  19.6,  19.0,   0.0,  0.00, 